User: anonymous   Login
Location: Freemans Gardens
(41.6414°N, 83.6077°W)
Time: 21:54:49
(UTC+00:00)
Language:

Meteor 1-11 - Orbit

View from above orbital plane
View from above orbital plane
View from above satellite
View from above satellite

Ground track
Ground track

The orbit data is extracted from the following two-line orbital elements,

1 05917U 72022A   21016.55947589  .00000157  00000-0  83373-4 0  9998
2 05917  81.2193  51.0254 0030743 147.2327 213.0758 14.08694884506007
Epoch (UTC): 16 January 2021 13:25:38
Eccentricity: 0.0030743
inclination: 81.2193°
perigee height: 841 km
apogee height: 886 km
right ascension of ascending node: 51.0254°
argument of perigee: 147.2327°
revolutions per day: 14.08694884
mean anomaly at epoch: 213.0758°
orbit number at epoch: 50600

The dashed part of the orbit path shows where the satellite is in the earth's shadow,  

DLR